Location: Feydey
(46.3431°N, 7.0106°E)
Time: 05:46:11
(UTC+00:00)

ATLAS 3B R/B - Visible Passes

Search period start: 26 October 2021 00:00
Search period end: 05 November 2021 00:00
Orbit: 994 x 1201 km, 63.8° (Epoch: 24 October)

Date Brightness Start Highest point End Pass type
(mag) Time Alt. Az. Time Alt. Az. Time Alt. Az.
26 Oct 4.5 18:01:44 10° WNW 18:06:48 22° NNW 18:12:03 10° NNE visible
26 Oct 4.5 19:55:18 10° NW 20:00:04 20° N 20:00:04 20° N visible
26 Oct 5.2 21:46:22 10° NNW 21:47:18 14° NNW 21:47:18 14° NNW visible
27 Oct 4.3 17:13:19 10° W 17:18:50 26° NNW 17:24:34 10° NNE visible
27 Oct 4.5 19:07:27 10° NW 19:12:07 19° N 19:14:08 17° NNE visible
27 Oct 4.8 20:59:06 10° NNW 21:01:23 19° NNW 21:01:23 19° NNW visible
28 Oct 4.6 18:19:19 10° NW 18:23:58 19° N 18:28:12 12° NNE visible
28 Oct 4.5 20:11:46 10° NNW 20:15:27 22° N 20:15:27 22° N visible
28 Oct 5.4 22:02:25 10° NW 22:02:41 11° NW 22:02:41 11° NW visible
29 Oct 4.5 17:30:56 10° WNW 17:35:52 21° NNW 17:40:59 10° NNE visible
29 Oct 4.4 19:24:15 10° NNW 19:29:19 21° NNE 19:29:32 21° NNE visible
29 Oct 5.0 21:15:11 10° NNW 21:16:46 17° NNW 21:16:46 17° NNW visible
30 Oct 4.3 16:42:30 10° WNW 16:47:52 24° NNW 16:53:27 10° NNE visible
30 Oct 4.5 18:36:30 10° NW 18:41:13 19° N 18:43:38 16° NNE visible
30 Oct 4.6 20:27:56 10° NNW 20:30:52 23° NNW 20:30:52 23° NNW visible
31 Oct 4.5 17:48:26 10° NW 17:53:04 19° N 17:57:44 10° NE visible
31 Oct 4.3 19:40:38 10° NNW 19:44:58 24° N 19:44:58 24° N visible
31 Oct 5.2 21:31:14 10° NW 21:32:12 15° NW 21:32:12 15° NW visible
01 Nov 4.4 17:00:07 10° WNW 17:04:57 20° NNW 17:09:57 10° NE visible
01 Nov 4.2 18:53:10 10° NNW 18:58:23 22° NNE 18:59:05 21° NNE visible
01 Nov 4.7 20:44:00 10° NNW 20:46:20 22° NNW 20:46:20 22° NNW visible
02 Nov 4.4 18:05:30 10° NW 18:10:19 19° N 18:13:14 15° NE visible
02 Nov 4.2 19:56:46 10° NNW 20:00:28 27° N 20:00:28 27° N visible
02 Nov 5.4 21:47:22 10° NW 21:47:42 12° NW 21:47:42 12° NW visible
03 Nov 4.4 17:17:33 10° NW 17:22:11 18° N 17:26:57 10° NE visible
03 Nov 4.0 19:09:29 10° NNW 19:14:37 27° NNE 19:14:37 27° NNE visible
03 Nov 4.9 21:00:03 10° NW 21:01:52 19° NW 21:01:52 19° NW visible
04 Nov 4.1 18:22:05 10° NNW 18:27:28 23° NNE 18:28:48 22° NE visible
04 Nov 4.3 20:12:49 10° NNW 20:16:03 28° NNW 20:16:03 28° NNW visible
